Regional Weather Roundup
Issued by NWS

Home | Current Version | Previous Version | Graphics & Text | Print | Product List | Glossary On
Versions: 1 2 3 4 5 6 7 8 9 10 11 12 13 14 15 16 17 18 19 20 21 22 23 24 25 26 27 28 29 30 31 32 33 34 35 36 37 38 39 40 41 42 43 44 45 46 47 48 49 50
396
ASUS43 KBIS 292210
RWRND

NORTH DAKOTA REGIONAL WEATHER ROUNDUP
NATIONAL WEATHER SERVICE BISMARCK ND
500 PM CDT THU SEP 29 2016

NOTE: "FAIR" INDICATES FEW OR NO CLOUDS BELOW 12,000 FEET WITH NO
SIGNIFICANT WEATHER AND/OR OBSTRUCTIONS TO VISIBILITY.


NDZ001>003-009>011-017-292300-
NORTHWEST NORTH DAKOTA

CITY           SKY/WX    TMP DP  RH WIND       PRES   REMARKS
WILLISTON      FAIR      76  47  35 SE13G22   30.14
MINOT          FAIR      71  45  39 SE15G24   30.23
MINOT AFB      FAIR      71  46  42 S17G24    30.22
$$

NDZ018>021-031>035-040>046-292300-
SOUTHWEST NORTH DAKOTA

CITY           SKY/WX    TMP DP  RH WIND       PRES   REMARKS
BISMARCK       FAIR      70  46  42 SE18G26   30.26
DICKINSON      FAIR      74  43  32 SE18G29   30.16
GARRISON         N/A     70  46  42 S14G22    30.24F
HETTINGER ARPT FAIR      77  43  29 SE20G28   30.19
$$

NDZ004>008-012>016-024-026-027-054-292300-
NORTHEAST NORTH DAKOTA

CITY           SKY/WX    TMP DP  RH WIND       PRES   REMARKS
GRAND FORKS    FAIR      67  46  47 SE9       30.38
GRND FRKS AFB  FAIR      66  47  49 SE8       30.37F
DEVILS LAKE    FAIR      65  48  54 S14       30.34
$$

NDZ022-023-025-028>030-036>039-047>053-292300-
SOUTHEAST NORTH DAKOTA

CITY           SKY/WX    TMP DP  RH WIND       PRES   REMARKS
FARGO          FAIR      67  45  45 SE10      30.39
JAMESTOWN      FAIR      66  47  50 S13       30.33F
$$





USA.gov is the U.S. government's official web portal to all federal, state and local government web resources and services.